This demonstration page uses our WeatherBlox Daily Observations layout. Learn more.

Left ArrowRight Arrow

31.84235, -102.49876

Hourly Observations for March 16, 2015

Temp ( °F °C ) Dew Point ( °F °C ) Humidity (%) Winds ( mph kmh ) Pressure ( in mb ) Visibility ( mi km ) Precip ( " mm )
12:53 am 00:53 Clear 55 12.8 29 -1.7 37 37 SSE 10 17 30.21 1023 10 16 0.00 0.00
1:53 am 01:53 Clear 55 12.8 29 -1.7 37 37 S 8 13 30.19 1022 10 16 0.00 0.00
2:53 am 02:53 Clear 54 12.2 29 -1.7 38 38 S 6 9 30.18 1022 10 16 0.00 0.00
3:53 am 03:53 Clear 53 11.7 30 -1.1 41 41 SSW 6 9 30.19 1022 10 16 0.00 0.00
4:53 am 04:53 Clear 52 11.1 30 -1.1 43 43 Calm 30.17 1022 10 16 0.00 0.00
5:53 am 05:53 Clear 48 8.9 30 -1.1 50 50 Calm 30.16 1021 10 16 0.00 0.00
6:53 am 06:53 Clear 47 8.3 31 -0.6 54 54 Calm 30.17 1022 10 16 0.00 0.00
7:53 am 07:53 Clear 46 7.8 32 0 58 58 Calm 30.19 1022 10 16 0.00 0.00
8:53 am 08:53 Sunny 53 11.7 33 0.6 47 47 Calm 30.21 1023 10 16 0.00 0.00
9:53 am 09:53 Partly Cloudy 57 13.9 39 3.9 51 51 S 5 7 30.21 1023 10 16 0.00 0.00
10:53 am 10:53 Sunny 62 16.7 40 4.4 44 44 SSE 9 15 30.20 1023 10 16 0.00 0.00
11:28 am 11:28 Partly Cloudy 65 18.3 40 4.4 40 40 S 9 15 30.18 1022 10 16 0.00 0.00
11:53 am 11:53 Mostly Sunny 66 18.9 39 3.9 37 37 S 12 19 30.19 1023 10 16 0.00 0.00
12:53 pm 12:53 Mostly Cloudy 68 20 40 4.4 36 36 S 14 22 30.16 1022 10 16 0.00 0.00
1:53 pm 13:53 Sunny 70 21.1 41 5 35 35 S 15 24 30.13 1020 10 16 0.00 0.00
2:53 pm 14:53 Partly Cloudy 72 22.2 43 6.1 35 35 SSE 16 26 30.11 1020 10 16 0.00 0.00
3:53 pm 15:53 Partly Cloudy 73 22.8 45 7.2 37 37 S 12 19 30.08 1019 10 16 0.00 0.00
4:53 pm 16:53 Mostly Sunny 72 22.2 45 7.2 38 38 S 13 20 30.07 1018 10 16 0.00 0.00
5:53 pm 17:53 Sunny 71 21.7 45 7.2 39 39 S 10 17 30.07 1018 10 16 0.00 0.00
6:53 pm 18:53 Sunny 70 21.1 45 7.2 41 41 SSE 16 26 30.07 1018 10 16 0.00 0.00
7:53 pm 19:53 Sunny 67 19.4 46 7.8 47 47 S 14 22 30.06 1018 10 16 0.00 0.00
8:53 pm 20:53 Clear 65 18.3 46 7.8 51 51 S 9 15 30.06 1018 10 16 0.00 0.00
9:53 pm 21:53 Clear 62 16.7 46 7.8 56 56 S 9 15 30.06 1018 10 16 0.00 0.00
10:53 pm 22:53 Clear 60 15.6 46 7.8 60 60 S 8 13 30.05 1018 10 16 0.00 0.00
11:53 pm 23:53 Clear 59 15 46 7.8 62 62 SSW 6 9 30.05 1018 10 16 0.00 0.00

Powered by AerisWeather